owner,sensor,date,latitude,longitude,air_temperature,qcFlag 
WAVCIS,ioos:station:WAVCIS:CSI09:1,2008-08-01T00:00:00Z,29.1015,-89.9782,28.1,11111222 
WAVCIS,ioos:station:WAVCIS:CSI09:1,2008-08-01T01:00:00Z,29.1015,-89.9782,27.92,11111222 
WAVCIS,ioos:station:WAVCIS:CSI09:1,2008-08-01T02:00:00Z,29.1015,-89.9782,28.03,11111222 
WAVCIS,ioos:station:WAVCIS:CSI09:1,2008-08-01T03:00:00Z,29.1015,-89.9782,27.82,11111222 
WAVCIS,ioos:station:WAVCIS:CSI09:1,2008-08-01T04:00:00Z,29.1015,-89.9782,27.55,11111222 
WAVCIS,ioos:station:WAVCIS:CSI09:1,2008-08-01T05:00:00Z,29.1015,-89.9782,27.55,11111222 
WAVCIS,ioos:station:WAVCIS:CSI09:1,2008-08-01T06:00:00Z,29.1015,-89.9782,27.86,11111222 
WAVCIS,ioos:station:WAVCIS:CSI09:1,2008-08-01T07:00:00Z,29.1015,-89.9782,28.74,11111222 
WAVCIS,ioos:station:WAVCIS:CSI09:1,2008-08-01T08:00:00Z,29.1015,-89.9782,28.84,11111222 
WAVCIS,ioos:station:WAVCIS:CSI09:1,2008-08-01T09:00:00Z,29.1015,-89.9782,28.74,11111222 
WAVCIS,ioos:station:WAVCIS:CSI09:1,2008-08-01T10:00:00Z,29.1015,-89.9782,28.28,11111222 
WAVCIS,ioos:station:WAVCIS:CSI09:1,2008-08-01T11:00:00Z,29.1015,-89.9782,28.26,11111222 
WAVCIS,ioos:station:WAVCIS:CSI09:1,2008-08-01T12:00:00Z,29.1015,-89.9782,28.18,11111222 
WAVCIS,ioos:station:WAVCIS:CSI09:1,2008-08-01T13:00:00Z,29.1015,-89.9782,28.31,11111222 
WAVCIS,ioos:station:WAVCIS:CSI09:1,2008-08-01T14:00:00Z,29.1015,-89.9782,27.93,11111222 
WAVCIS,ioos:station:WAVCIS:CSI09:1,2008-08-01T15:00:00Z,29.1015,-89.9782,24.83,11111222 
WAVCIS,ioos:station:WAVCIS:CSI09:1,2008-08-01T16:00:00Z,29.1015,-89.9782,25.67,11111222 
WAVCIS,ioos:station:WAVCIS:CSI09:1,2008-08-01T17:00:00Z,29.1015,-89.9782,26.56,11111222 
WAVCIS,ioos:station:WAVCIS:CSI09:1,2008-08-01T18:00:00Z,29.1015,-89.9782,25.68,11111222 
WAVCIS,ioos:station:WAVCIS:CSI09:1,2008-08-01T19:00:00Z,29.1015,-89.9782,25.59,11111222 
WAVCIS,ioos:station:WAVCIS:CSI09:1,2008-08-01T20:00:00Z,29.1015,-89.9782,23.5,11111222 
WAVCIS,ioos:station:WAVCIS:CSI09:1,2008-08-01T21:00:00Z,29.1015,-89.9782,23.28,11111222 
WAVCIS,ioos:station:WAVCIS:CSI09:1,2008-08-01T22:00:00Z,29.1015,-89.9782,24.62,11111222 
WAVCIS,ioos:station:WAVCIS:CSI09:1,2008-08-01T23:00:00Z,29.1015,-89.9782,25.02,11111222 
WAVCIS,ioos:station:WAVCIS:CSI09:1,2008-08-02T00:00:00Z,29.1015,-89.9782,25.42,11111222 
WAVCIS,ioos:station:WAVCIS:CSI09:1,2008-08-02T01:00:00Z,29.1015,-89.9782,25.94,11111222 
WAVCIS,ioos:station:WAVCIS:CSI09:1,2008-08-02T02:00:00Z,29.1015,-89.9782,26.36,11111222 
WAVCIS,ioos:station:WAVCIS:CSI09:1,2008-08-02T03:00:00Z,29.1015,-89.9782,26.96,11111222 
WAVCIS,ioos:station:WAVCIS:CSI09:1,2008-08-02T04:00:00Z,29.1015,-89.9782,27.41,11111222 
WAVCIS,ioos:station:WAVCIS:CSI09:1,2008-08-02T05:00:00Z,29.1015,-89.9782,27.52,11111222 
WAVCIS,ioos:station:WAVCIS:CSI09:1,2008-08-02T06:00:00Z,29.1015,-89.9782,27.68,11111222 
WAVCIS,ioos:station:WAVCIS:CSI09:1,2008-08-02T07:00:00Z,29.1015,-89.9782,27.94,11111222 
WAVCIS,ioos:station:WAVCIS:CSI09:1,2008-08-02T08:00:00Z,29.1015,-89.9782,27.86,11111222 
WAVCIS,ioos:station:WAVCIS:CSI09:1,2008-08-02T09:00:00Z,29.1015,-89.9782,21.98,11111222 
WAVCIS,ioos:station:WAVCIS:CSI09:1,2008-08-02T10:00:00Z,29.1015,-89.9782,24.63,11111222 
WAVCIS,ioos:station:WAVCIS:CSI09:1,2008-08-02T11:00:00Z,29.1015,-89.9782,24.57,11111222 
WAVCIS,ioos:station:WAVCIS:CSI09:1,2008-08-02T12:00:00Z,29.1015,-89.9782,23.37,11111222 
WAVCIS,ioos:station:WAVCIS:CSI09:1,2008-08-02T13:00:00Z,29.1015,-89.9782,24.39,11111222 
WAVCIS,ioos:station:WAVCIS:CSI09:1,2008-08-02T14:00:00Z,29.1015,-89.9782,23.7,11111222 
WAVCIS,ioos:station:WAVCIS:CSI09:1,2008-08-02T15:00:00Z,29.1015,-89.9782,23.67,11111222 
WAVCIS,ioos:station:WAVCIS:CSI09:1,2008-08-02T16:00:00Z,29.1015,-89.9782,24.48,11111222 
WAVCIS,ioos:station:WAVCIS:CSI09:1,2008-08-02T17:00:00Z,29.1015,-89.9782,24.75,11111222 
WAVCIS,ioos:station:WAVCIS:CSI09:1,2008-08-02T18:00:00Z,29.1015,-89.9782,25.42,11111222 
WAVCIS,ioos:station:WAVCIS:CSI09:1,2008-08-02T19:00:00Z,29.1015,-89.9782,26.05,11111222 
WAVCIS,ioos:station:WAVCIS:CSI09:1,2008-08-02T20:00:00Z,29.1015,-89.9782,26.45,11111222 
WAVCIS,ioos:station:WAVCIS:CSI09:1,2008-08-02T21:00:00Z,29.1015,-89.9782,26.76,11111222 
WAVCIS,ioos:station:WAVCIS:CSI09:1,2008-08-02T22:00:00Z,29.1015,-89.9782,27.29,11111222 
WAVCIS,ioos:station:WAVCIS:CSI09:1,2008-08-02T23:00:00Z,29.1015,-89.9782,27.26,11111222 
WAVCIS,ioos:station:WAVCIS:CSI09:1,2008-08-03T00:00:00Z,29.1015,-89.9782,27.54,11111222 
WAVCIS,ioos:station:WAVCIS:CSI09:1,2008-08-03T01:00:00Z,29.1015,-89.9782,27.43,11111222 
WAVCIS,ioos:station:WAVCIS:CSI09:1,2008-08-03T02:00:00Z,29.1015,-89.9782,27.39,11111222 
WAVCIS,ioos:station:WAVCIS:CSI09:1,2008-08-03T03:00:00Z,29.1015,-89.9782,27.44,11111222 
WAVCIS,ioos:station:WAVCIS:CSI09:1,2008-08-03T04:00:00Z,29.1015,-89.9782,27.47,11111222 
WAVCIS,ioos:station:WAVCIS:CSI09:1,2008-08-03T05:00:00Z,29.1015,-89.9782,27.5,11111222 
WAVCIS,ioos:station:WAVCIS:CSI09:1,2008-08-03T06:00:00Z,29.1015,-89.9782,27.25,11111222 
WAVCIS,ioos:station:WAVCIS:CSI09:1,2008-08-03T07:00:00Z,29.1015,-89.9782,27.15,11111222 
WAVCIS,ioos:station:WAVCIS:CSI09:1,2008-08-03T08:00:00Z,29.1015,-89.9782,27.2,11111222 
WAVCIS,ioos:station:WAVCIS:CSI09:1,2008-08-03T09:00:00Z,29.1015,-89.9782,27.23,11111222 
WAVCIS,ioos:station:WAVCIS:CSI09:1,2008-08-03T10:00:00Z,29.1015,-89.9782,27.34,11111222 
WAVCIS,ioos:station:WAVCIS:CSI09:1,2008-08-03T11:00:00Z,29.1015,-89.9782,27.35,11111222 
WAVCIS,ioos:station:WAVCIS:CSI09:1,2008-08-03T12:00:00Z,29.1015,-89.9782,27.33,11111222 
WAVCIS,ioos:station:WAVCIS:CSI09:1,2008-08-03T13:00:00Z,29.1015,-89.9782,27.37,11111222 
WAVCIS,ioos:station:WAVCIS:CSI09:1,2008-08-03T14:00:00Z,29.1015,-89.9782,27.11,11111222 
WAVCIS,ioos:station:WAVCIS:CSI09:1,2008-08-03T15:00:00Z,29.1015,-89.9782,27.72,11111222 
WAVCIS,ioos:station:WAVCIS:CSI09:1,2008-08-03T16:00:00Z,29.1015,-89.9782,28.09,11111222 
WAVCIS,ioos:station:WAVCIS:CSI09:1,2008-08-03T17:00:00Z,29.1015,-89.9782,28.23,11111222 
WAVCIS,ioos:station:WAVCIS:CSI09:1,2008-08-03T18:00:00Z,29.1015,-89.9782,28.14,11111222 
WAVCIS,ioos:station:WAVCIS:CSI09:1,2008-08-03T19:00:00Z,29.1015,-89.9782,28.97,11111222 
WAVCIS,ioos:station:WAVCIS:CSI09:1,2008-08-03T20:00:00Z,29.1015,-89.9782,29.85,11111222 
WAVCIS,ioos:station:WAVCIS:CSI09:1,2008-08-03T21:00:00Z,29.1015,-89.9782,28.96,11111222 
WAVCIS,ioos:station:WAVCIS:CSI09:1,2008-08-03T22:00:00Z,29.1015,-89.9782,28.6,11111222 
WAVCIS,ioos:station:WAVCIS:CSI09:1,2008-08-03T23:00:00Z,29.1015,-89.9782,28.24,11111222 
WAVCIS,ioos:station:WAVCIS:CSI09:1,2008-08-04T00:00:00Z,29.1015,-89.9782,27.8,11111222 
WAVCIS,ioos:station:WAVCIS:CSI09:1,2008-08-04T01:00:00Z,29.1015,-89.9782,27.69,11111222 
WAVCIS,ioos:station:WAVCIS:CSI09:1,2008-08-04T02:00:00Z,29.1015,-89.9782,27.58,11111222 
WAVCIS,ioos:station:WAVCIS:CSI09:1,2008-08-04T03:00:00Z,29.1015,-89.9782,27.41,11111222 
WAVCIS,ioos:station:WAVCIS:CSI09:1,2008-08-04T04:00:00Z,29.1015,-89.9782,27.23,11111222 
WAVCIS,ioos:station:WAVCIS:CSI09:1,2008-08-04T05:00:00Z,29.1015,-89.9782,27.18,11111222 
WAVCIS,ioos:station:WAVCIS:CSI09:1,2008-08-04T06:00:00Z,29.1015,-89.9782,26.96,11111222 
WAVCIS,ioos:station:WAVCIS:CSI09:1,2008-08-04T07:00:00Z,29.1015,-89.9782,26.67,11111222 
WAVCIS,ioos:station:WAVCIS:CSI09:1,2008-08-04T08:00:00Z,29.1015,-89.9782,25.89,11111222 
WAVCIS,ioos:station:WAVCIS:CSI09:1,2008-08-04T09:00:00Z,29.1015,-89.9782,26.41,11111222 
WAVCIS,ioos:station:WAVCIS:CSI09:1,2008-08-04T10:00:00Z,29.1015,-89.9782,26.19,11111222 
WAVCIS,ioos:station:WAVCIS:CSI09:1,2008-08-04T11:00:00Z,29.1015,-89.9782,25.81,11111222 
WAVCIS,ioos:station:WAVCIS:CSI09:1,2008-08-04T12:00:00Z,29.1015,-89.9782,25.9,11111222 
WAVCIS,ioos:station:WAVCIS:CSI09:1,2008-08-04T13:00:00Z,29.1015,-89.9782,26.18,11111222 
WAVCIS,ioos:station:WAVCIS:CSI09:1,2008-08-04T14:00:00Z,29.1015,-89.9782,25.7,11111222 
WAVCIS,ioos:station:WAVCIS:CSI09:1,2008-08-04T15:00:00Z,29.1015,-89.9782,25.74,11111222 
WAVCIS,ioos:station:WAVCIS:CSI09:1,2008-08-04T16:00:00Z,29.1015,-89.9782,25.63,11111222 
WAVCIS,ioos:station:WAVCIS:CSI09:1,2008-08-04T17:00:00Z,29.1015,-89.9782,25.78,11111222 
WAVCIS,ioos:station:WAVCIS:CSI09:1,2008-08-04T18:00:00Z,29.1015,-89.9782,25.06,11111222 
WAVCIS,ioos:station:WAVCIS:CSI09:1,2008-08-04T19:00:00Z,29.1015,-89.9782,25.37,11111222 
WAVCIS,ioos:station:WAVCIS:CSI09:1,2008-08-04T20:00:00Z,29.1015,-89.9782,25.15,11111222 
WAVCIS,ioos:station:WAVCIS:CSI09:1,2008-08-04T21:00:00Z,29.1015,-89.9782,25.34,11111222 
WAVCIS,ioos:station:WAVCIS:CSI09:1,2008-08-04T22:00:00Z,29.1015,-89.9782,25.09,11111222 
WAVCIS,ioos:station:WAVCIS:CSI09:1,2008-08-04T23:00:00Z,29.1015,-89.9782,24.95,11111222 
WAVCIS,ioos:station:WAVCIS:CSI09:1,2008-08-05T00:00:00Z,29.1015,-89.9782,25.44,11111222 
WAVCIS,ioos:station:WAVCIS:CSI09:1,2008-08-05T01:00:00Z,29.1015,-89.9782,25.61,11111222 
WAVCIS,ioos:station:WAVCIS:CSI09:1,2008-08-05T02:00:00Z,29.1015,-89.9782,26.2,11111222 
WAVCIS,ioos:station:WAVCIS:CSI09:1,2008-08-05T03:00:00Z,29.1015,-89.9782,26.34,11111222 
WAVCIS,ioos:station:WAVCIS:CSI09:1,2008-08-05T04:00:00Z,29.1015,-89.9782,26.82,11111222 
WAVCIS,ioos:station:WAVCIS:CSI09:1,2008-08-05T05:00:00Z,29.1015,-89.9782,27.02,11111222 
WAVCIS,ioos:station:WAVCIS:CSI09:1,2008-08-05T06:00:00Z,29.1015,-89.9782,27.19,11111222 
WAVCIS,ioos:station:WAVCIS:CSI09:1,2008-08-05T07:00:00Z,29.1015,-89.9782,27.24,11111222 
WAVCIS,ioos:station:WAVCIS:CSI09:1,2008-08-05T08:00:00Z,29.1015,-89.9782,27.52,11111222 
WAVCIS,ioos:station:WAVCIS:CSI09:1,2008-08-05T09:00:00Z,29.1015,-89.9782,27.33,11111222 
WAVCIS,ioos:station:WAVCIS:CSI09:1,2008-08-05T10:00:00Z,29.1015,-89.9782,27.53,11111222 
WAVCIS,ioos:station:WAVCIS:CSI09:1,2008-08-05T11:00:00Z,29.1015,-89.9782,27.56,11111222 
WAVCIS,ioos:station:WAVCIS:CSI09:1,2008-08-05T12:00:00Z,29.1015,-89.9782,27.61,11111222 
WAVCIS,ioos:station:WAVCIS:CSI09:1,2008-08-05T13:00:00Z,29.1015,-89.9782,27.73,11111222 
WAVCIS,ioos:station:WAVCIS:CSI09:1,2008-08-05T14:00:00Z,29.1015,-89.9782,27.95,11111222 
WAVCIS,ioos:station:WAVCIS:CSI09:1,2008-08-05T15:00:00Z,29.1015,-89.9782,27.91,11111222 
WAVCIS,ioos:station:WAVCIS:CSI09:1,2008-08-05T16:00:00Z,29.1015,-89.9782,28.01,11111222 
WAVCIS,ioos:station:WAVCIS:CSI09:1,2008-08-05T17:00:00Z,29.1015,-89.9782,28.1,11111222 
WAVCIS,ioos:station:WAVCIS:CSI09:1,2008-08-05T18:00:00Z,29.1015,-89.9782,28.1,11111222 
WAVCIS,ioos:station:WAVCIS:CSI09:1,2008-08-05T19:00:00Z,29.1015,-89.9782,28.15,11111222 
WAVCIS,ioos:station:WAVCIS:CSI09:1,2008-08-05T20:00:00Z,29.1015,-89.9782,28.32,11111222 
WAVCIS,ioos:station:WAVCIS:CSI09:1,2008-08-05T21:00:00Z,29.1015,-89.9782,28.36,11111222 
WAVCIS,ioos:station:WAVCIS:CSI09:1,2008-08-05T22:00:00Z,29.1015,-89.9782,28.43,11111222 
WAVCIS,ioos:station:WAVCIS:CSI09:1,2008-08-05T23:00:00Z,29.1015,-89.9782,28.26,11111222 
WAVCIS,ioos:station:WAVCIS:CSI09:1,2008-08-06T00:00:00Z,29.1015,-89.9782,28.1,11111222 
WAVCIS,ioos:station:WAVCIS:CSI09:1,2008-08-06T01:00:00Z,29.1015,-89.9782,27.98,11111222 
WAVCIS,ioos:station:WAVCIS:CSI09:1,2008-08-06T02:00:00Z,29.1015,-89.9782,27.93,11111222 
WAVCIS,ioos:station:WAVCIS:CSI09:1,2008-08-06T03:00:00Z,29.1015,-89.9782,27.89,11111222 
WAVCIS,ioos:station:WAVCIS:CSI09:1,2008-08-06T04:00:00Z,29.1015,-89.9782,27.88,11111222 
WAVCIS,ioos:station:WAVCIS:CSI09:1,2008-08-06T05:00:00Z,29.1015,-89.9782,27.68,11111222 
WAVCIS,ioos:station:WAVCIS:CSI09:1,2008-08-06T06:00:00Z,29.1015,-89.9782,27.62,11111222 
WAVCIS,ioos:station:WAVCIS:CSI09:1,2008-08-06T07:00:00Z,29.1015,-89.9782,27.62,11111222 
WAVCIS,ioos:station:WAVCIS:CSI09:1,2008-08-06T08:00:00Z,29.1015,-89.9782,27.61,11111222 
WAVCIS,ioos:station:WAVCIS:CSI09:1,2008-08-06T09:00:00Z,29.1015,-89.9782,27.56,11111222 
WAVCIS,ioos:station:WAVCIS:CSI09:1,2008-08-06T10:00:00Z,29.1015,-89.9782,27.76,11111222 
WAVCIS,ioos:station:WAVCIS:CSI09:1,2008-08-06T11:00:00Z,29.1015,-89.9782,27.34,11111222 
WAVCIS,ioos:station:WAVCIS:CSI09:1,2008-08-06T12:00:00Z,29.1015,-89.9782,27.4,11111222 
WAVCIS,ioos:station:WAVCIS:CSI09:1,2008-08-06T13:00:00Z,29.1015,-89.9782,27.54,11111222 
WAVCIS,ioos:station:WAVCIS:CSI09:1,2008-08-06T14:00:00Z,29.1015,-89.9782,27.98,11111222 
WAVCIS,ioos:station:WAVCIS:CSI09:1,2008-08-06T15:00:00Z,29.1015,-89.9782,28.43,11111222 
WAVCIS,ioos:station:WAVCIS:CSI09:1,2008-08-06T16:00:00Z,29.1015,-89.9782,28.38,11111222 
WAVCIS,ioos:station:WAVCIS:CSI09:1,2008-08-06T17:00:00Z,29.1015,-89.9782,28.36,11111222 
WAVCIS,ioos:station:WAVCIS:CSI09:1,2008-08-06T18:00:00Z,29.1015,-89.9782,28.8,11111222 
WAVCIS,ioos:station:WAVCIS:CSI09:1,2008-08-06T19:00:00Z,29.1015,-89.9782,29.76,11111222 
WAVCIS,ioos:station:WAVCIS:CSI09:1,2008-08-06T20:00:00Z,29.1015,-89.9782,29.65,11111222 
WAVCIS,ioos:station:WAVCIS:CSI09:1,2008-08-06T21:00:00Z,29.1015,-89.9782,29.26,11111222 
WAVCIS,ioos:station:WAVCIS:CSI09:1,2008-08-06T22:00:00Z,29.1015,-89.9782,28.9,11111222 
WAVCIS,ioos:station:WAVCIS:CSI09:1,2008-08-06T23:00:00Z,29.1015,-89.9782,28.95,11111222 
WAVCIS,ioos:station:WAVCIS:CSI09:1,2008-08-07T00:00:00Z,29.1015,-89.9782,28.36,11111222 
WAVCIS,ioos:station:WAVCIS:CSI09:1,2008-08-07T01:00:00Z,29.1015,-89.9782,28.16,11111222 
WAVCIS,ioos:station:WAVCIS:CSI09:1,2008-08-07T02:00:00Z,29.1015,-89.9782,28.24,11111222 
WAVCIS,ioos:station:WAVCIS:CSI09:1,2008-08-07T03:00:00Z,29.1015,-89.9782,28.22,11111222 
WAVCIS,ioos:station:WAVCIS:CSI09:1,2008-08-07T04:00:00Z,29.1015,-89.9782,28.06,11111222 
WAVCIS,ioos:station:WAVCIS:CSI09:1,2008-08-07T05:00:00Z,29.1015,-89.9782,27.96,11111222 
WAVCIS,ioos:station:WAVCIS:CSI09:1,2008-08-07T06:00:00Z,29.1015,-89.9782,27.82,11111222 
WAVCIS,ioos:station:WAVCIS:CSI09:1,2008-08-07T07:00:00Z,29.1015,-89.9782,27.65,11111222 
WAVCIS,ioos:station:WAVCIS:CSI09:1,2008-08-07T08:00:00Z,29.1015,-89.9782,27.43,11111222 
WAVCIS,ioos:station:WAVCIS:CSI09:1,2008-08-07T09:00:00Z,29.1015,-89.9782,27.42,11111222 
WAVCIS,ioos:station:WAVCIS:CSI09:1,2008-08-07T10:00:00Z,29.1015,-89.9782,27.32,11111222 
WAVCIS,ioos:station:WAVCIS:CSI09:1,2008-08-07T11:00:00Z,29.1015,-89.9782,27.06,11111222 
WAVCIS,ioos:station:WAVCIS:CSI09:1,2008-08-07T12:00:00Z,29.1015,-89.9782,27.14,11111222 
WAVCIS,ioos:station:WAVCIS:CSI09:1,2008-08-07T13:00:00Z,29.1015,-89.9782,27.03,11111222 
WAVCIS,ioos:station:WAVCIS:CSI09:1,2008-08-07T14:00:00Z,29.1015,-89.9782,27.39,11111222 
WAVCIS,ioos:station:WAVCIS:CSI09:1,2008-08-07T15:00:00Z,29.1015,-89.9782,27.44,11111222 
WAVCIS,ioos:station:WAVCIS:CSI09:1,2008-08-07T16:00:00Z,29.1015,-89.9782,27.72,11111222 
WAVCIS,ioos:station:WAVCIS:CSI09:1,2008-08-07T17:00:00Z,29.1015,-89.9782,28.27,11111222 
WAVCIS,ioos:station:WAVCIS:CSI09:1,2008-08-07T18:00:00Z,29.1015,-89.9782,28.97,11111222 
WAVCIS,ioos:station:WAVCIS:CSI09:1,2008-08-07T19:00:00Z,29.1015,-89.9782,29.83,11111222 
WAVCIS,ioos:station:WAVCIS:CSI09:1,2008-08-07T20:00:00Z,29.1015,-89.9782,29.56,11111222 
WAVCIS,ioos:station:WAVCIS:CSI09:1,2008-08-07T21:00:00Z,29.1015,-89.9782,29.39,11111222 
WAVCIS,ioos:station:WAVCIS:CSI09:1,2008-08-07T22:00:00Z,29.1015,-89.9782,29.49,11111222 
WAVCIS,ioos:station:WAVCIS:CSI09:1,2008-08-07T23:00:00Z,29.1015,-89.9782,28.83,11111222 
WAVCIS,ioos:station:WAVCIS:CSI09:1,2008-08-08T00:00:00Z,29.1015,-89.9782,28.78,11111222 
WAVCIS,ioos:station:WAVCIS:CSI09:1,2008-08-08T01:00:00Z,29.1015,-89.9782,28.48,11111222 
WAVCIS,ioos:station:WAVCIS:CSI09:1,2008-08-08T02:00:00Z,29.1015,-89.9782,28.48,11111222 
WAVCIS,ioos:station:WAVCIS:CSI09:1,2008-08-08T03:00:00Z,29.1015,-89.9782,28.7,11111222 
WAVCIS,ioos:station:WAVCIS:CSI09:1,2008-08-08T04:00:00Z,29.1015,-89.9782,28.43,11111222 
WAVCIS,ioos:station:WAVCIS:CSI09:1,2008-08-08T05:00:00Z,29.1015,-89.9782,28.16,11111222 
WAVCIS,ioos:station:WAVCIS:CSI09:1,2008-08-08T06:00:00Z,29.1015,-89.9782,28.09,11111222 
WAVCIS,ioos:station:WAVCIS:CSI09:1,2008-08-08T07:00:00Z,29.1015,-89.9782,23.37,11111222 
WAVCIS,ioos:station:WAVCIS:CSI09:1,2008-08-08T08:00:00Z,29.1015,-89.9782,23.7,11111222 
WAVCIS,ioos:station:WAVCIS:CSI09:1,2008-08-08T09:00:00Z,29.1015,-89.9782,24.82,11111222 
WAVCIS,ioos:station:WAVCIS:CSI09:1,2008-08-08T10:00:00Z,29.1015,-89.9782,25.66,11111222 
WAVCIS,ioos:station:WAVCIS:CSI09:1,2008-08-08T11:00:00Z,29.1015,-89.9782,24.36,11111222 
WAVCIS,ioos:station:WAVCIS:CSI09:1,2008-08-08T12:00:00Z,29.1015,-89.9782,25.45,11111222 
WAVCIS,ioos:station:WAVCIS:CSI09:1,2008-08-08T13:00:00Z,29.1015,-89.9782,23.2,11111222 
WAVCIS,ioos:station:WAVCIS:CSI09:1,2008-08-08T14:00:00Z,29.1015,-89.9782,24.42,11111222 
WAVCIS,ioos:station:WAVCIS:CSI09:1,2008-08-08T15:00:00Z,29.1015,-89.9782,25.65,11111222 
WAVCIS,ioos:station:WAVCIS:CSI09:1,2008-08-08T16:00:00Z,29.1015,-89.9782,25.52,11111222 
WAVCIS,ioos:station:WAVCIS:CSI09:1,2008-08-08T17:00:00Z,29.1015,-89.9782,25.24,11111222 
WAVCIS,ioos:station:WAVCIS:CSI09:1,2008-08-08T18:00:00Z,29.1015,-89.9782,25.49,11111222 
WAVCIS,ioos:station:WAVCIS:CSI09:1,2008-08-08T19:00:00Z,29.1015,-89.9782,25.99,11111222 
WAVCIS,ioos:station:WAVCIS:CSI09:1,2008-08-08T20:00:00Z,29.1015,-89.9782,26.1,11111222 
WAVCIS,ioos:station:WAVCIS:CSI09:1,2008-08-08T21:00:00Z,29.1015,-89.9782,24.85,11111222 
WAVCIS,ioos:station:WAVCIS:CSI09:1,2008-08-08T22:00:00Z,29.1015,-89.9782,25.2,11111222 
WAVCIS,ioos:station:WAVCIS:CSI09:1,2008-08-08T23:00:00Z,29.1015,-89.9782,25.54,11111222 
WAVCIS,ioos:station:WAVCIS:CSI09:1,2008-08-09T00:00:00Z,29.1015,-89.9782,25.91,11111222 
WAVCIS,ioos:station:WAVCIS:CSI09:1,2008-08-09T01:00:00Z,29.1015,-89.9782,25.51,11111222 
WAVCIS,ioos:station:WAVCIS:CSI09:1,2008-08-09T02:00:00Z,29.1015,-89.9782,25.49,11111222 
WAVCIS,ioos:station:WAVCIS:CSI09:1,2008-08-09T03:00:00Z,29.1015,-89.9782,25.35,11111222 
WAVCIS,ioos:station:WAVCIS:CSI09:1,2008-08-09T04:00:00Z,29.1015,-89.9782,25.47,11111222 
WAVCIS,ioos:station:WAVCIS:CSI09:1,2008-08-09T05:00:00Z,29.1015,-89.9782,25.19,11111222 
WAVCIS,ioos:station:WAVCIS:CSI09:1,2008-08-09T06:00:00Z,29.1015,-89.9782,25.26,11111222 
WAVCIS,ioos:station:WAVCIS:CSI09:1,2008-08-09T07:00:00Z,29.1015,-89.9782,25.15,11111222 
WAVCIS,ioos:station:WAVCIS:CSI09:1,2008-08-09T08:00:00Z,29.1015,-89.9782,25.03,11111222 
WAVCIS,ioos:station:WAVCIS:CSI09:1,2008-08-09T09:00:00Z,29.1015,-89.9782,25.01,11111222 
WAVCIS,ioos:station:WAVCIS:CSI09:1,2008-08-09T10:00:00Z,29.1015,-89.9782,24.68,11111222 
WAVCIS,ioos:station:WAVCIS:CSI09:1,2008-08-09T11:00:00Z,29.1015,-89.9782,24.6,11111222 
WAVCIS,ioos:station:WAVCIS:CSI09:1,2008-08-09T12:00:00Z,29.1015,-89.9782,24.77,11111222 
WAVCIS,ioos:station:WAVCIS:CSI09:1,2008-08-09T13:00:00Z,29.1015,-89.9782,25.2,11111222 
WAVCIS,ioos:station:WAVCIS:CSI09:1,2008-08-09T14:00:00Z,29.1015,-89.9782,26.32,11111222 
WAVCIS,ioos:station:WAVCIS:CSI09:1,2008-08-09T15:00:00Z,29.1015,-89.9782,26.71,11111222 
WAVCIS,ioos:station:WAVCIS:CSI09:1,2008-08-09T16:00:00Z,29.1015,-89.9782,27.48,11111222 
WAVCIS,ioos:station:WAVCIS:CSI09:1,2008-08-09T17:00:00Z,29.1015,-89.9782,27.66,11111222 
WAVCIS,ioos:station:WAVCIS:CSI09:1,2008-08-09T18:00:00Z,29.1015,-89.9782,28.6,11111222 
WAVCIS,ioos:station:WAVCIS:CSI09:1,2008-08-09T19:00:00Z,29.1015,-89.9782,28.69,11111222 
WAVCIS,ioos:station:WAVCIS:CSI09:1,2008-08-09T20:00:00Z,29.1015,-89.9782,27.97,11111222 
WAVCIS,ioos:station:WAVCIS:CSI09:1,2008-08-09T21:00:00Z,29.1015,-89.9782,28.2,11111222 
WAVCIS,ioos:station:WAVCIS:CSI09:1,2008-08-09T22:00:00Z,29.1015,-89.9782,28.02,11111222 
WAVCIS,ioos:station:WAVCIS:CSI09:1,2008-08-09T23:00:00Z,29.1015,-89.9782,28.05,11111222 
WAVCIS,ioos:station:WAVCIS:CSI09:1,2008-08-10T00:00:00Z,29.1015,-89.9782,27.97,11111222 
WAVCIS,ioos:station:WAVCIS:CSI09:1,2008-08-10T01:00:00Z,29.1015,-89.9782,27.75,11111222 
WAVCIS,ioos:station:WAVCIS:CSI09:1,2008-08-10T02:00:00Z,29.1015,-89.9782,27.54,11111222 
WAVCIS,ioos:station:WAVCIS:CSI09:1,2008-08-10T03:00:00Z,29.1015,-89.9782,27.54,11111222 
WAVCIS,ioos:station:WAVCIS:CSI09:1,2008-08-10T04:00:00Z,29.1015,-89.9782,27.54,11111222 
WAVCIS,ioos:station:WAVCIS:CSI09:1,2008-08-10T05:00:00Z,29.1015,-89.9782,27.54,11111222 
WAVCIS,ioos:station:WAVCIS:CSI09:1,2008-08-10T06:00:00Z,29.1015,-89.9782,27.43,11111222 
WAVCIS,ioos:station:WAVCIS:CSI09:1,2008-08-10T07:00:00Z,29.1015,-89.9782,27.36,11111222 
WAVCIS,ioos:station:WAVCIS:CSI09:1,2008-08-10T08:00:00Z,29.1015,-89.9782,27.06,11111222 
WAVCIS,ioos:station:WAVCIS:CSI09:1,2008-08-10T09:00:00Z,29.1015,-89.9782,27.01,11111222 
WAVCIS,ioos:station:WAVCIS:CSI09:1,2008-08-10T10:00:00Z,29.1015,-89.9782,27.01,11111222 
WAVCIS,ioos:station:WAVCIS:CSI09:1,2008-08-10T11:00:00Z,29.1015,-89.9782,27.01,11111222 
WAVCIS,ioos:station:WAVCIS:CSI09:1,2008-08-10T12:00:00Z,29.1015,-89.9782,27.03,11111222 
WAVCIS,ioos:station:WAVCIS:CSI09:1,2008-08-10T13:00:00Z,29.1015,-89.9782,27.31,11111222 
WAVCIS,ioos:station:WAVCIS:CSI09:1,2008-08-10T14:00:00Z,29.1015,-89.9782,27.54,11111222 
WAVCIS,ioos:station:WAVCIS:CSI09:1,2008-08-10T15:00:00Z,29.1015,-89.9782,27.52,11111222 
WAVCIS,ioos:station:WAVCIS:CSI09:1,2008-08-10T16:00:00Z,29.1015,-89.9782,27.6,11111222 
WAVCIS,ioos:station:WAVCIS:CSI09:1,2008-08-10T17:00:00Z,29.1015,-89.9782,27.67,11111222 
WAVCIS,ioos:station:WAVCIS:CSI09:1,2008-08-10T18:00:00Z,29.1015,-89.9782,27.85,11111222 
WAVCIS,ioos:station:WAVCIS:CSI09:1,2008-08-10T19:00:00Z,29.1015,-89.9782,28.4,11111222 
WAVCIS,ioos:station:WAVCIS:CSI09:1,2008-08-10T20:00:00Z,29.1015,-89.9782,28.15,11111222 
WAVCIS,ioos:station:WAVCIS:CSI09:1,2008-08-10T21:00:00Z,29.1015,-89.9782,28.48,11111222 
WAVCIS,ioos:station:WAVCIS:CSI09:1,2008-08-10T22:00:00Z,29.1015,-89.9782,28.56,11111222 
WAVCIS,ioos:station:WAVCIS:CSI09:1,2008-08-10T23:00:00Z,29.1015,-89.9782,28.72,11111222 
WAVCIS,ioos:station:WAVCIS:CSI09:1,2008-08-11T00:00:00Z,29.1015,-89.9782,28.85,11111222 
WAVCIS,ioos:station:WAVCIS:CSI09:1,2008-08-11T01:00:00Z,29.1015,-89.9782,28.4,11111222 
WAVCIS,ioos:station:WAVCIS:CSI09:1,2008-08-11T02:00:00Z,29.1015,-89.9782,28.41,11111222 
WAVCIS,ioos:station:WAVCIS:CSI09:1,2008-08-11T03:00:00Z,29.1015,-89.9782,28.41,11111222 
WAVCIS,ioos:station:WAVCIS:CSI09:1,2008-08-11T04:00:00Z,29.1015,-89.9782,28.37,11111222 
WAVCIS,ioos:station:WAVCIS:CSI09:1,2008-08-11T05:00:00Z,29.1015,-89.9782,28.4,11111222 
WAVCIS,ioos:station:WAVCIS:CSI09:1,2008-08-11T06:00:00Z,29.1015,-89.9782,28.6,11111222 
WAVCIS,ioos:station:WAVCIS:CSI09:1,2008-08-11T07:00:00Z,29.1015,-89.9782,28.54,11111222 
WAVCIS,ioos:station:WAVCIS:CSI09:1,2008-08-11T08:00:00Z,29.1015,-89.9782,28.48,11111222 
WAVCIS,ioos:station:WAVCIS:CSI09:1,2008-08-11T09:00:00Z,29.1015,-89.9782,28.51,11111222 
WAVCIS,ioos:station:WAVCIS:CSI09:1,2008-08-11T10:00:00Z,29.1015,-89.9782,28.6,11111222 
WAVCIS,ioos:station:WAVCIS:CSI09:1,2008-08-11T11:00:00Z,29.1015,-89.9782,27.92,11111222 
WAVCIS,ioos:station:WAVCIS:CSI09:1,2008-08-11T12:00:00Z,29.1015,-89.9782,27.68,11111222 
WAVCIS,ioos:station:WAVCIS:CSI09:1,2008-08-11T13:00:00Z,29.1015,-89.9782,27.93,11111222 
WAVCIS,ioos:station:WAVCIS:CSI09:1,2008-08-11T14:00:00Z,29.1015,-89.9782,28.24,11111222 
WAVCIS,ioos:station:WAVCIS:CSI09:1,2008-08-11T15:00:00Z,29.1015,-89.9782,28.34,11111222 
WAVCIS,ioos:station:WAVCIS:CSI09:1,2008-08-11T16:00:00Z,29.1015,-89.9782,28.32,11111222 
WAVCIS,ioos:station:WAVCIS:CSI09:1,2008-08-11T17:00:00Z,29.1015,-89.9782,28.48,11111222 
WAVCIS,ioos:station:WAVCIS:CSI09:1,2008-08-11T18:00:00Z,29.1015,-89.9782,28.65,11111222 
WAVCIS,ioos:station:WAVCIS:CSI09:1,2008-08-11T19:00:00Z,29.1015,-89.9782,28.7,11111222 
WAVCIS,ioos:station:WAVCIS:CSI09:1,2008-08-11T20:00:00Z,29.1015,-89.9782,28.28,11111222 
WAVCIS,ioos:station:WAVCIS:CSI09:1,2008-08-11T21:00:00Z,29.1015,-89.9782,28.57,11111222 
WAVCIS,ioos:station:WAVCIS:CSI09:1,2008-08-11T22:00:00Z,29.1015,-89.9782,28.55,11111222 
WAVCIS,ioos:station:WAVCIS:CSI09:1,2008-08-11T23:00:00Z,29.1015,-89.9782,28.47,11111222 
WAVCIS,ioos:station:WAVCIS:CSI09:1,2008-08-12T00:00:00Z,29.1015,-89.9782,28.55,11111222 
WAVCIS,ioos:station:WAVCIS:CSI09:1,2008-08-12T01:00:00Z,29.1015,-89.9782,28.79,11111222 
WAVCIS,ioos:station:WAVCIS:CSI09:1,2008-08-12T02:00:00Z,29.1015,-89.9782,28.8,11111222 
WAVCIS,ioos:station:WAVCIS:CSI09:1,2008-08-12T03:00:00Z,29.1015,-89.9782,28.69,11111222 
WAVCIS,ioos:station:WAVCIS:CSI09:1,2008-08-12T04:00:00Z,29.1015,-89.9782,29.05,11111222 